Wind_Speed
13 23 29 24 21 31 36 41 39 41 40 37 33 32 32 30 27 20 25 20 18 19 19 17 14 11 12 9 9 11 11 14 9 6 6 9 9 12 16 18 23 23 23
9 14 21 23 15 26 36 37 41 41 44 38 31 23 29 32 26 21 18 17 17 15 13 15 15 13 13 12 11 11 9 10 11 7 4 1 4 10 13 17 23 25 26
12 9 8 10 15 25 32 41 41 40 40 37 34 23 19 18 15 16 11 12 14 12 15 16 16 14 14 15 12 12 14 10 10 12 5 2 3 4 9 14 18 25 28
10 6 6 13 16 18 23 31 32 37 41 38 37 32 28 22 24 14 15 22 11 11 14 15 14 12 13 14 13 10 14 14 11 9 17 8 3 3 1 5 15 22 28
15 13 3 9 14 16 20 20 29 31 37 39 37 33 26 25 31 23 29 25 25 15 15 15 14 13 14 15 15 14 15 17 14 11 4 8 5 4 3 3 6 19 24
12 5 7 6 11 18 18 23 28 30 31 37 38 32 29 27 25 24 23 23 23 21 17 15 15 14 14 15 15 13 14 16 16 13 12 8 5 5 4 2 3 10 19
9 8 7 8 10 17 22 23 29 30 31 33 31 31 30 29 25 21 19 20 20 19 17 16 14 11 10 15 15 14 15 17 16 16 14 14 11 7 10 6 3 4 10
11 10 9 12 18 20 22 23 27 26 29 30 29 29 28 24 22 20 20 20 18 16 16 13 9 8 11 14 13 12 15 17 16 17 13 10 11 10 10 5 6 2 4
10 11 9 14 17 20 26 26 25 23 26 28 28 27 27 26 25 23 19 18 15 14 14 14 12 7 16 14 13 13 16 15 15 15 16 12 4 8 9 9 8 5 4
7 9 9 13 17 21 23 24 23 24 23 23 26 24 22 23 24 20 17 15 12 13 13 12 13 11 12 13 10 7 14 15 14 14 14 14 11 7 6 6 7 9 5
9 9 10 15 19 20 21 22 22 20 21 22 20 19 18 20 18 18 16 16 13 11 13 12 12 7 10 11 11 7 10 16 17 15 14 15 13 10 9 7 5 6 6
10 11 11 14 15 17 20 22 21 21 22 21 18 17 18 19 19 17 15 10 8 8 10 13 14 12 8 8 10 8 8 13 20 18 15 13 12 13 12 10 9 6 4
11 10 10 11 16 18 21 24 24 23 21 19 19 18 19 17 17 14 14 12 10 10 11 14 16 17 14 10 7 7 7 11 18 18 18 17 12 10 9 11 10 9 9
12 10 8 9 14 18 23 23 23 23 22 22 22 21 21 20 18 15 16 12 12 12 11 13 13 12 12 11 11 11 9 9 15 13 12 11 10 9 10 10 9 9 9
9 12 12 10 13 16 19 23 24 26 25 24 24 23 21 20 19 18 16 14 13 16 14 13 12 13 13 11 10 12 12 13 12 10 9 7 6 6 7 9 9 9 8
14 15 14 13 13 19 22 23 24 28 27 26 27 25 24 22 21 21 22 19 19 18 17 16 14 14 13 12 12 14 13 11 11 13 13 10 8 7 6 5 4 4 6
15 15 16 15 20 24 27 27 30 30 31 31 29 28 27 25 25 26 25 24 23 22 20 17 14 12 10 10 9 10 14 14 15 15 15 13 10 7 5 5 4 3 4
12 14 14 18 24 26 27 27 30 31 30 30 32 31 31 30 31 31 28 26 24 24 22 18 14 10 7 6 6 9 11 15 16 15 13 10 9 6 4 5 6 6 6
14 16 25 29 26 28 31 30 30 30 30 30 32 34 34 34 34 33 30 27 25 24 21 17 15 10 7 6 7 8 13 15 15 14 11 8 6 3 2 5 7 7 8
11 14 23 23 25 28 29 29 28 29 28 33 37 35 36 38 39 37 32 28 26 25 22 18 12 9 7 7 7 8 13 15 15 14 11 7 4 1 3 5 5 7 8
7 12 20 24 28 28 32 27 28 29 40 37 33 31 29 27 25 32 31 26 25 22 20 18 14 11 8 8 8 9 10 16 14 11 10 8 4 2 2 2 4 4 6
3 14 13 10 14 22 26 25 27 33 23 22 20 14 9 11 20 32 31 30 27 23 22 19 15 12 8 7 6 7 8 11 13 12 10 8 5 2 1 2 3 3 3
12 6 15 14 13 17 22 19 14 16 22 23 19 20 16 13 22 28 31 30 29 28 25 25 21 17 13 11 9 8 8 8 10 11 10 6 4 3 3 5 4 2 3
17 9 13 9 8 16 19 23 17 22 24 30 18 10 12 26 27 29 28 28 29 24 20 23 22 19 16 13 9 9 9 9 10 10 7 5 6 5 6 6 5 4 5
19 2 13 10 5 6 11 14 21 25 34 24 23 31 38 35 29 29 29 27 28 28 29 28 25 22 19 19 14 11 10 10 8 5 4 10 9 6 7 8 8 7 6
14 51 3 13 6 6 3 5 17 22 24 26 29 31 31 26 29 31 28 27 23 23 24 21 20 18 14 13 18 15 13 10 8 10 12 14 12 12 12 13 11 7 6
Wind_Direction
205 213 223 199 196 206 205 205 204 210 207 207 204 206 208 213 213 225 226 223 221 225 227 237 233 244 250 241 232 223 225 219 220 174 239 227 215 226 228 214 211 213 211
214 228 225 202 193 210 208 207 208 209 209 204 203 196 194 194 200 209 208 218 241 246 244 243 240 255 250 241 230 222 224 217 214 178 166 192 206 222 220 223 209 214 213
214 241 204 205 198 204 206 207 207 209 207 206 199 191 185 187 190 195 206 237 243 252 253 255 248 250 246 241 233 227 221 216 212 210 177 140 213 146 195 214 209 211 214
231 248 196 185 205 210 208 205 206 209 207 202 203 195 195 185 196 220 219 254 267 259 269 267 267 267 251 236 235 233 229 228 229 214 232 241 174 160 141 190 213 215 217
227 225 202 185 206 205 197 202 209 206 206 206 201 204 204 206 201 227 236 256 249 267 279 270 270 273 253 244 229 252 238 228 227 217 187 214 206 186 138 182 181 214 224
234 214 140 138 216 205 202 201 207 208 207 211 210 218 226 221 203 214 217 236 247 253 269 277 273 270 262 246 242 253 227 223 228 233 226 215 192 188 169 144 185 201 215
221 191 173 161 178 184 189 199 200 197 199 201 213 224 227 227 222 219 232 241 252 252 260 272 257 249 262 254 244 236 222 219 226 230 238 228 237 229 210 183 154 184 205
215 198 195 177 193 194 187 190 195 195 203 208 217 223 220 222 225 233 249 248 245 248 258 258 235 257 235 230 230 228 214 217 226 229 239 251 221 226 217 196 161 116 211
204 194 184 183 188 191 195 195 192 195 205 210 216 219 221 226 239 243 245 238 239 240 259 245 241 256 214 217 217 214 215 219 228 225 230 243 252 223 250 234 215 168 178
171 177 177 176 181 186 190 197 200 197 200 203 216 217 217 231 234 231 230 237 243 239 235 253 228 226 215 202 194 216 213 220 221 223 231 239 243 247 243 284 249 226 198
166 158 168 162 167 176 187 193 196 199 204 206 207 208 207 218 218 222 232 248 239 233 238 219 205 196 187 180 187 224 216 219 224 228 233 238 238 244 251 244 248 242 215
156 154 160 153 157 171 190 198 194 197 204 198 193 203 209 213 222 234 234 221 203 220 214 211 195 190 176 171 172 205 226 225 228 225 232 243 229 227 230 227 227 239 229
142 151 144 165 169 177 185 189 194 196 196 196 195 202 215 219 226 227 216 201 212 205 209 212 205 203 203 189 168 189 209 232 231 221 223 227 220 220 209 218 222 221 225
160 157 165 168 179 183 186 194 194 194 197 203 205 208 219 220 218 209 194 208 206 194 198 199 190 179 190 205 214 224 228 234 231 207 212 222 222 215 203 206 215 220 225
165 179 178 179 176 182 192 201 201 197 200 207 214 218 224 215 206 200 200 193 198 184 180 177 167 162 169 176 184 182 181 179 164 153 162 173 179 175 173 178 189 201 203
186 186 183 180 184 189 192 200 204 202 202 209 216 220 208 201 199 191 183 178 175 179 180 175 168 163 166 164 168 174 172 171 166 147 141 151 155 156 157 158 152 173 181
194 187 186 183 191 194 193 194 202 205 204 206 214 210 202 196 196 190 185 182 180 177 175 173 174 171 172 179 186 189 189 185 179 171 166 157 159 164 163 158 169 178 200
183 196 192 188 196 198 197 196 199 204 203 209 208 205 200 197 193 190 188 181 180 178 175 172 174 178 182 192 201 195 189 179 175 171 170 169 171 185 215 235 235 219 220
193 193 191 192 188 191 196 189 193 199 200 203 208 205 199 198 195 194 191 184 181 178 177 179 177 182 190 198 189 191 179 170 171 169 171 175 170 178 267 278 253 224 193
190 183 185 187 190 194 188 181 186 191 196 203 208 207 204 201 197 196 192 189 185 182 180 178 180 175 182 182 179 186 180 173 169 173 179 179 169 204 290 285 246 212 202
170 171 173 180 193 190 184 184 186 194 205 205 203 202 202 201 191 190 191 189 186 180 179 177 173 175 181 187 187 193 192 190 188 190 187 191 204 254 311 238 218 212 215
92 149 144 163 187 189 185 191 193 204 193 178 168 164 165 196 197 197 190 190 184 180 180 177 175 175 178 186 185 189 199 194 201 198 196 191 196 224 136 149 182 182 209
2 143 136 138 161 186 200 200 191 168 155 142 110 74 8 294 225 209 191 186 184 184 182 186 182 180 175 172 176 165 175 204 215 187 174 192 215 196 169 153 159 152 158
320 42 93 100 138 176 203 215 162 167 151 125 96 354 237 271 258 213 200 190 184 186 188 188 188 189 185 182 184 177 172 179 186 178 171 209 196 187 183 183 186 176 168
332 308 135 112 133 168 197 190 186 177 153 168 203 203 200 213 223 210 201 199 201 207 194 199 196 189 190 198 191 186 175 177 186 191 203 224 220 194 199 203 202 187 181
343 308 340 109 138 125 141 199 188 180 164 173 192 193 204 209 201 191 193 200 211 210 210 212 206 211 222 197 196 194 193 197 207 205 216 232 232 218 220 214 212 202 195
Height
743 740 742 738 745 757 765 769 773 776 782 786 788 792 793 798 801 805 806 808 811 812 814 815 815 816 816 817 817 819 820 822 824 824 827 828 828 828 830 831 835 838 841
747 741 742 738 744 751 757 764 767 771 774 780 786 788 791 793 798 802 803 806 809 809 810 810 812 813 814 815 814 815 817 819 821 822 825 827 828 827 829 829 832 835 838
736 732 738 741 743 746 750 756 761 766 773 776 782 785 791 795 798 801 802 805 807 807 808 808 808 809 811 811 811 812 814 817 818 819 820 826 825 825 828 828 830 833 835
731 733 735 738 744 745 750 752 759 763 768 772 778 780 782 787 791 799 797 803 805 805 805 805 804 805 807 807 808 810 812 814 815 816 817 819 819 822 827 827 828 830 832
726 729 734 737 742 745 748 750 757 761 764 772 773 777 780 784 785 791 794 798 801 802 802 802 801 802 803 804 805 805 808 811 812 814 814 816 818 819 820 824 825 827 828
724 731 735 736 739 742 747 749 754 757 762 768 770 773 777 781 784 788 791 793 796 797 798 798 797 797 798 799 799 801 804 806 809 811 813 814 815 815 816 819 821 821 824
721 728 733 735 738 742 744 747 750 753 757 763 768 769 773 778 781 784 787 790 791 792 794 793 793 792 792 795 796 797 800 803 806 809 810 811 812 812 813 814 817 818 821
715 723 726 729 734 739 741 743 746 750 755 760 763 766 770 775 779 781 783 786 787 789 792 791 790 788 786 792 793 794 797 800 804 805 807 808 809 810 811 812 814 819 820
713 719 723 727 729 735 738 740 743 748 753 757 760 761 766 771 776 778 780 782 784 785 787 787 787 786 786 788 790 791 794 797 801 802 805 807 808 810 810 811 812 812 819
711 715 717 721 727 732 736 739 742 745 750 753 755 757 759 769 773 775 777 779 780 781 783 784 785 785 785 785 786 788 792 795 798 800 802 804 806 809 810 810 810 811 812
704 710 715 718 723 730 733 738 742 743 747 748 752 754 756 766 770 772 774 776 777 778 779 781 783 784 784 784 785 787 790 793 796 798 800 801 804 806 808 808 809 809 810
704 707 711 716 721 725 732 736 739 742 745 746 749 753 758 764 767 769 771 773 775 776 777 778 782 784 784 784 784 785 788 791 794 796 798 799 801 803 805 807 808 808 809
704 710 712 718 723 728 731 734 737 739 743 746 749 754 759 762 764 766 768 771 774 775 777 778 781 782 783 784 784 787 788 789 792 793 794 796 798 801 803 804 804 806 807
703 707 716 719 724 727 729 732 735 738 744 748 751 754 758 760 762 764 768 770 773 775 776 778 780 780 782 783 785 787 787 789 790 792 794 795 796 798 800 801 801 802 804
705 707 712 715 720 725 729 731 734 737 742 748 751 753 756 759 761 764 767 770 772 775 777 778 779 780 782 784 785 788 789 790 791 792 793 795 796 798 799 800 800 800 801
700 702 706 711 716 719 724 729 733 736 741 746 749 752 754 757 760 763 766 769 771 774 776 779 780 780 782 784 785 787 788 789 788 790 793 796 797 800 800 801 800 800 800
694 698 701 704 710 714 718 723 728 733 737 739 744 748 751 753 757 760 763 766 768 772 775 778 780 781 782 784 786 787 788 788 789 791 793 796 799 801 802 802 801 801 801
691 693 696 699 705 711 716 719 724 729 734 738 739 743 748 750 753 757 760 763 767 770 773 775 778 780 782 784 786 787 787 788 789 791 793 795 798 799 801 801 802 801 801
674 680 687 691 700 705 709 714 719 724 729 732 736 738 741 747 752 755 759 762 765 768 770 773 775 777 780 782 784 785 786 788 790 792 794 795 795 797 798 799 799 799 799
674 677 683 691 696 699 704 709 713 718 722 725 729 736 739 741 745 752 758 760 762 763 766 770 773 776 779 780 781 783 786 788 790 792 793 794 794 795 796 796 798 797 798
670 675 682 684 689 696 701 704 707 710 711 719 727 732 737 744 751 751 756 761 764 764 767 769 772 775 777 778 779 781 784 785 788 791 792 793 794 794 794 794 797 798 798
676 674 679 685 690 694 700 700 702 705 715 722 727 735 740 747 750 752 754 755 759 762 765 767 771 773 775 776 777 779 783 784 785 788 790 793 794 794 793 795 797 798 798
686 681 677 682 687 693 698 700 704 712 719 724 733 734 745 749 754 754 751 753 753 757 758 761 765 769 771 774 776 778 781 784 786 787 789 791 793 794 794 795 797 798 798
689 682 686 687 686 686 695 700 706 709 715 723 722 726 735 745 754 752 751 748 748 752 755 759 762 766 769 771 775 776 779 782 786 787 786 790 791 792 793 795 796 797 798
706 700 691 690 694 691 693 699 703 704 707 711 708 724 733 731 743 746 745 746 746 748 750 756 759 762 766 768 771 775 777 780 783 782 784 789 790 789 791 794 796 796 796
701 721 700 686 695 692 693 699 707 707 710 711 714 716 721 726 730 732 739 743 744 746 749 754 758 761 764 766 769 772 775 776 778 780 782 784 785 786 788 790 793 791 792